Location: ???????
(60.4260°N, 46.9069°E)
Time: 05:24:32
(UTC+00:00)

Cosmos 405 - Pass Details

Date: 30 March 2020
Orbit: 450 x 466 km, 81.3° (Epoch: 24 May)

Event Time Altitude Azimuth Distance (km) Brightness Sun altitude
Exits shadow 01:06:11 - 202° (SSW) 1,838 5.6 -9.8°
Reaches altitude 10° 01:06:41 10° 203° (SSW) 1,627 5.3 -9.7°
Maximum altitude 01:10:15 72° 289° (WNW) 499 3.0 -9.3°
Drops below altitude 10° 01:13:50 10° 14° (NNE) 1,640 6.3 -8.9°
Sets 01:15:56 0° 17° (NNE) 2,520 7.3 -8.7°
